QPF
0.00 0.00 0.00 0.00 0.00 0.00 0.00 0.00 0.00 0.00 0.00 0.00 0.00 0.01 0.01 0.01 0.00 0.01 0.00 0.00 0.01 0.01 0.01 0.01 0.02 0.02 0.01 0.01 0.01 0.02 0.04 0.04 0.05 0.05 0.03 0.02 0.03 0.02 0.03 0.01 0.00 0.00 0.01
0.00 0.00 0.00 0.00 0.00 0.00 0.00 0.00 0.00 0.00 0.00 0.01 0.01 0.01 0.01 0.01 0.01 0.01 0.01 0.01 0.01 0.01 0.01 0.01 0.01 0.01 0.01 0.01 0.02 0.03 0.03 0.02 0.03 0.05 0.06 0.04 0.04 0.04 0.03 0.01 0.01 0.01 0.01
0.00 0.00 0.00 0.00 0.00 0.00 0.00 0.00 0.00 0.01 0.01 0.01 0.01 0.01 0.00 0.00 0.00 0.01 0.01 0.01 0.00 0.01 0.00 0.00 0.01 0.01 0.03 0.02 0.03 0.02 0.02 0.01 0.02 0.05 0.09 0.06 0.04 0.06 0.06 0.03 0.01 0.02 0.02
0.00 0.00 0.00 0.00 0.00 0.00 0.00 0.00 0.00 0.01 0.01 0.01 0.01 0.00 0.00 0.00 0.00 0.00 0.00 0.00 0.00 0.01 0.00 0.00 0.00 0.01 0.03 0.04 0.04 0.03 0.02 0.01 0.02 0.05 0.08 0.09 0.06 0.07 0.06 0.03 0.01 0.01 0.01
0.00 0.00 0.00 0.00 0.00 0.00 0.00 0.00 0.00 0.00 0.00 0.01 0.01 0.00 0.00 0.00 0.00 0.01 0.00 0.00 0.01 0.01 0.00 0.00 0.00 0.01 0.03 0.03 0.03 0.02 0.01 0.01 0.02 0.04 0.07 0.08 0.06 0.06 0.05 0.03 0.02 0.01 0.01
0.00 0.00 0.00 0.00 0.00 0.00 0.00 0.00 0.00 0.01 0.00 0.01 0.01 0.00 0.01 0.01 0.00 0.00 0.00 0.00 0.00 0.00 0.00 0.00 0.00 0.01 0.02 0.02 0.03 0.02 0.01 0.01 0.02 0.04 0.03 0.06 0.05 0.06 0.04 0.02 0.01 0.01 0.01
0.00 0.00 0.00 0.00 0.00 0.00 0.00 0.00 0.00 0.01 0.01 0.01 0.01 0.00 0.00 0.00 0.01 0.01 0.00 0.00 0.00 0.00 0.00 0.00 0.00 0.01 0.01 0.02 0.03 0.02 0.01 0.01 0.02 0.03 0.01 0.01 0.03 0.05 0.03 0.01 0.01 0.01 0.01
0.00 0.00 0.00 0.00 0.00 0.00 0.00 0.00 0.00 0.01 0.01 0.01 0.01 0.00 0.00 0.00 0.00 0.01 0.01 0.00 0.00 0.00 0.00 0.00 0.00 0.00 0.00 0.01 0.01 0.01 0.02 0.04 0.05 0.03 0.01 0.01 0.03 0.03 0.02 0.01 0.01 0.01 0.01
0.00 0.00 0.00 0.00 0.00 0.00 0.01 0.01 0.01 0.01 0.01 0.01 0.01 0.01 0.01 0.00 0.00 0.01 0.01 0.00 0.00 0.00 0.00 0.00 0.00 0.00 0.00 0.00 0.00 0.01 0.03 0.05 0.07 0.04 0.01 0.01 0.03 0.03 0.01 0.00 0.00 0.00 0.01
0.00 0.00 0.00 0.00 0.00 0.00 0.01 0.02 0.02 0.01 0.02 0.04 0.01 0.01 0.00 0.00 0.00 0.00 0.00 0.00 0.00 0.00 0.00 0.00 0.00 0.00 0.00 0.00 0.00 0.00 0.01 0.02 0.05 0.03 0.01 0.02 0.04 0.02 0.01 0.00 0.00 0.00 0.00
0.00 0.00 0.00 0.00 0.00 0.00 0.00 0.01 0.03 0.02 0.02 0.05 0.02 0.01 0.00 0.00 0.00 0.00 0.00 0.00 0.00 0.00 0.00 0.00 0.00 0.00 0.00 0.00 0.00 0.00 0.00 0.01 0.02 0.01 0.00 0.02 0.02 0.01 0.00 0.00 0.00 0.00 0.00
0.00 0.00 0.00 0.00 0.00 0.00 0.00 0.00 0.00 0.00 0.01 0.01 0.01 0.00 0.00 0.01 0.01 0.00 0.01 0.00 0.00 0.00 0.00 0.00 0.00 0.00 0.00 0.00 0.00 0.00 0.00 0.00 0.00 0.00 0.00 0.01 0.01 0.00 0.00 0.00 0.00 0.00 0.00
0.00 0.00 0.00 0.00 0.00 0.00 0.00 0.00 0.00 0.00 0.00 0.01 0.00 0.01 0.01 0.01 0.01 0.00 0.00 0.00 0.00 0.00 0.00 0.00 0.00 0.00 0.00 0.00 0.00 0.00 0.00 0.00 0.00 0.00 0.00 0.00 0.00 0.00 0.00 0.00 0.00 0.00 0.00
0.00 0.00 0.00 0.00 0.00 0.00 0.00 0.00 0.00 0.00 0.00 0.00 0.00 0.01 0.01 0.02 0.01 0.00 0.00 0.00 0.00 0.00 0.00 0.00 0.00 0.00 0.00 0.00 0.00 0.00 0.00 0.00 0.00 0.00 0.00 0.00 0.00 0.00 0.00 0.00 0.00 0.00 0.00
0.00 0.00 0.00 0.00 0.00 0.00 0.00 0.00 0.00 0.00 0.00 0.00 0.00 0.01 0.03 0.03 0.03 0.01 0.00 0.00 0.00 0.00 0.00 0.00 0.00 0.00 0.00 0.00 0.00 0.00 0.00 0.00 0.00 0.00 0.00 0.00 0.00 0.00 0.00 0.00 0.00 0.00 0.00
0.02 0.02 0.01 0.01 0.00 0.00 0.00 0.00 0.00 0.00 0.00 0.00 0.00 0.01 0.03 0.05 0.03 0.03 0.01 0.00 0.00 0.00 0.00 0.00 0.00 0.00 0.00 0.00 0.00 0.00 0.00 0.00 0.00 0.00 0.00 0.00 0.00 0.00 0.00 0.00 0.00 0.00 0.00
0.06 0.06 0.05 0.05 0.03 0.01 0.01 0.00 0.00 0.00 0.00 0.00 0.00 0.00 0.01 0.03 0.03 0.03 0.01 0.00 0.00 0.00 0.00 0.00 0.00 0.00 0.00 0.00 0.00 0.00 0.00 0.00 0.00 0.00 0.00 0.00 0.00 0.00 0.00 0.00 0.00 0.00 0.00
0.10 0.07 0.08 0.07 0.06 0.04 0.04 0.02 0.01 0.00 0.00 0.00 0.00 0.00 0.00 0.01 0.03 0.03 0.01 0.00 0.00 0.00 0.00 0.00 0.00 0.00 0.00 0.00 0.00 0.00 0.00 0.00 0.00 0.00 0.00 0.00 0.00 0.00 0.00 0.00 0.00 0.00 0.00
0.12 0.10 0.10 0.11 0.09 0.08 0.08 0.07 0.04 0.02 0.00 0.00 0.01 0.00 0.00 0.01 0.02 0.02 0.01 0.01 0.00 0.00 0.00 0.00 0.00 0.00 0.00 0.00 0.00 0.00 0.00 0.00 0.00 0.00 0.00 0.00 0.00 0.00 0.00 0.00 0.00 0.00 0.00
0.07 0.10 0.12 0.15 0.14 0.12 0.11 0.12 0.10 0.06 0.04 0.02 0.01 0.01 0.01 0.02 0.03 0.03 0.03 0.02 0.02 0.01 0.00 0.00 0.00 0.00 0.00 0.00 0.00 0.00 0.00 0.00 0.00 0.00 0.00 0.00 0.01 0.00 0.00 0.00 0.00 0.00 0.00
0.02 0.04 0.09 0.15 0.16 0.14 0.11 0.11 0.10 0.09 0.08 0.07 0.05 0.04 0.04 0.04 0.03 0.03 0.04 0.04 0.04 0.03 0.01 0.00 0.01 0.01 0.01 0.01 0.00 0.01 0.01 0.00 0.00 0.00 0.00 0.00 0.00 0.00 0.00 0.00 0.00 0.00 0.00
0.01 0.02 0.05 0.09 0.11 0.09 0.08 0.10 0.11 0.12 0.12 0.14 0.14 0.13 0.12 0.09 0.07 0.07 0.07 0.09 0.09 0.07 0.04 0.03 0.04 0.05 0.05 0.04 0.03 0.03 0.01 0.00 0.00 0.00 0.00 0.00 0.00 0.00 0.00 0.00 0.00 0.00 0.00
0.00 0.01 0.01 0.03 0.05 0.06 0.07 0.11 0.20 0.32 0.37 0.41 0.41 0.36 0.33 0.30 0.22 0.18 0.17 0.17 0.15 0.13 0.11 0.08 0.08 0.10 0.10 0.08 0.06 0.05 0.03 0.00 0.00 0.00 0.00 0.01 0.01 0.00 0.00 0.00 0.01 0.01 0.00
0.00 0.00 0.00 0.01 0.01 0.02 0.04 0.09 0.20 0.36 0.51 0.63 0.74 0.73 0.68 0.62 0.51 0.41 0.33 0.27 0.22 0.19 0.18 0.17 0.15 0.14 0.12 0.12 0.08 0.05 0.05 0.04 0.02 0.00 0.00 0.01 0.01 0.00 0.00 0.00 0.00 0.01 0.01
0.00 0.00 0.00 0.00 0.00 0.01 0.02 0.05 0.12 0.22 0.35 0.53 0.74 0.88 1.02 1.08 1.01 0.84 0.61 0.41 0.31 0.27 0.27 0.28 0.27 0.22 0.17 0.14 0.09 0.04 0.02 0.03 0.03 0.01 0.00 0.00 0.00 0.00 0.00 0.00 0.00 0.00 0.01
0.00 0.00 0.00 0.00 0.00 0.00 0.01 0.02 0.06 0.11 0.20 0.33 0.47 0.64 0.84 0.99 1.00 0.87 0.71 0.50 0.33 0.26 0.27 0.35 0.37 0.34 0.28 0.19 0.10 0.05 0.02 0.01 0.00 0.00 0.00 0.00 0.00 0.00 0.01 0.01 0.01 0.00 0.00
MSLP
1013.92 1013.48 1013.19 1013.12 1013.24 1013.50 1013.81 1014.09 1014.28 1014.35 1014.30 1014.20 1014.08 1014.03 1014.06 1014.18 1014.37 1014.58 1014.76 1014.88 1014.92 1014.88 1014.79 1014.68 1014.59 1014.55 1014.56 1014.63 1014.73 1014.85 1014.97 1015.09 1015.21 1015.32 1015.41 1015.49 1015.54 1015.56 1015.53 1015.47 1015.38 1015.29 1015.21
1013.69 1013.38 1013.20 1013.20 1013.36 1013.63 1013.92 1014.17 1014.33 1014.39 1014.37 1014.31 1014.26 1014.28 1014.37 1014.53 1014.74 1014.94 1015.10 1015.19 1015.20 1015.14 1015.05 1014.95 1014.88 1014.84 1014.84 1014.87 1014.92 1014.99 1015.07 1015.16 1015.26 1015.38 1015.49 1015.60 1015.68 1015.72 1015.71 1015.66 1015.57 1015.47 1015.39
1013.44 1013.26 1013.20 1013.29 1013.49 1013.77 1014.06 1014.29 1014.44 1014.50 1014.51 1014.50 1014.52 1014.59 1014.73 1014.92 1015.11 1015.29 1015.40 1015.44 1015.42 1015.35 1015.26 1015.18 1015.13 1015.10 1015.10 1015.12 1015.14 1015.17 1015.21 1015.27 1015.35 1015.46 1015.59 1015.72 1015.82 1015.88 1015.89 1015.85 1015.77 1015.68 1015.61
1013.18 1013.13 1013.18 1013.36 1013.63 1013.93 1014.22 1014.44 1014.59 1014.66 1014.70 1014.74 1014.81 1014.92 1015.09 1015.27 1015.44 1015.56 1015.62 1015.61 1015.55 1015.47 1015.39 1015.34 1015.32 1015.33 1015.35 1015.38 1015.39 1015.39 1015.41 1015.44 1015.50 1015.60 1015.72 1015.85 1015.97 1016.04 1016.06 1016.03 1015.97 1015.90 1015.84
1012.94 1013.00 1013.16 1013.42 1013.75 1014.08 1014.38 1014.60 1014.75 1014.83 1014.89 1014.96 1015.06 1015.20 1015.37 1015.54 1015.67 1015.74 1015.74 1015.69 1015.60 1015.52 1015.46 1015.45 1015.47 1015.53 1015.58 1015.63 1015.65 1015.65 1015.65 1015.66 1015.71 1015.79 1015.91 1016.02 1016.13 1016.20 1016.22 1016.20 1016.15 1016.09 1016.06
1012.73 1012.88 1013.13 1013.47 1013.84 1014.20 1014.50 1014.73 1014.87 1014.96 1015.02 1015.11 1015.23 1015.39 1015.56 1015.71 1015.81 1015.84 1015.80 1015.71 1015.61 1015.53 1015.49 1015.52 1015.59 1015.69 1015.79 1015.87 1015.91 1015.93 1015.93 1015.93 1015.97 1016.04 1016.13 1016.22 1016.30 1016.35 1016.37 1016.34 1016.30 1016.26 1016.25
1012.58 1012.78 1013.09 1013.48 1013.89 1014.26 1014.56 1014.78 1014.91 1014.99 1015.07 1015.16 1015.30 1015.46 1015.64 1015.78 1015.86 1015.88 1015.82 1015.72 1015.62 1015.55 1015.54 1015.60 1015.71 1015.84 1015.98 1016.09 1016.16 1016.19 1016.20 1016.22 1016.24 1016.29 1016.36 1016.43 1016.48 1016.50 1016.49 1016.46 1016.41 1016.39 1016.39
1012.46 1012.70 1013.04 1013.45 1013.87 1014.24 1014.53 1014.73 1014.85 1014.93 1015.01 1015.11 1015.26 1015.45 1015.63 1015.79 1015.88 1015.90 1015.85 1015.77 1015.68 1015.63 1015.63 1015.71 1015.83 1015.99 1016.14 1016.27 1016.36 1016.41 1016.44 1016.46 1016.49 1016.53 1016.58 1016.62 1016.64 1016.63 1016.59 1016.54 1016.49 1016.47 1016.48
1012.38 1012.61 1012.96 1013.36 1013.78 1014.14 1014.41 1014.59 1014.70 1014.78 1014.86 1014.98 1015.15 1015.36 1015.58 1015.77 1015.90 1015.95 1015.93 1015.87 1015.81 1015.77 1015.78 1015.85 1015.97 1016.12 1016.27 1016.39 1016.49 1016.56 1016.60 1016.64 1016.68 1016.72 1016.76 1016.78 1016.77 1016.74 1016.68 1016.61 1016.54 1016.51 1016.53
1012.30 1012.52 1012.84 1013.23 1013.62 1013.95 1014.21 1014.38 1014.48 1014.56 1014.65 1014.80 1015.01 1015.26 1015.52 1015.75 1015.93 1016.03 1016.05 1016.03 1015.98 1015.95 1015.96 1016.01 1016.10 1016.22 1016.34 1016.45 1016.54 1016.61 1016.67 1016.73 1016.78 1016.83 1016.87 1016.88 1016.86 1016.82 1016.74 1016.66 1016.59 1016.55 1016.56
1012.20 1012.39 1012.68 1013.04 1013.39 1013.70 1013.94 1014.10 1014.21 1014.30 1014.42 1014.61 1014.85 1015.14 1015.45 1015.73 1015.96 1016.11 1016.17 1016.18 1016.16 1016.13 1016.13 1016.15 1016.20 1016.28 1016.36 1016.44 1016.52 1016.59 1016.65 1016.72 1016.79 1016.85 1016.90 1016.92 1016.91 1016.87 1016.79 1016.71 1016.65 1016.60 1016.60
1012.08 1012.23 1012.49 1012.80 1013.12 1013.40 1013.62 1013.78 1013.90 1014.02 1014.18 1014.41 1014.70 1015.03 1015.37 1015.69 1015.96 1016.14 1016.25 1016.28 1016.28 1016.25 1016.23 1016.23 1016.25 1016.29 1016.33 1016.39 1016.44 1016.50 1016.57 1016.65 1016.73 1016.81 1016.87 1016.91 1016.91 1016.89 1016.83 1016.77 1016.71 1016.67 1016.67
1011.93 1012.05 1012.27 1012.53 1012.81 1013.05 1013.26 1013.42 1013.57 1013.73 1013.93 1014.19 1014.52 1014.88 1015.25 1015.59 1015.87 1016.08 1016.21 1016.26 1016.27 1016.26 1016.24 1016.23 1016.23 1016.25 1016.27 1016.31 1016.35 1016.41 1016.47 1016.55 1016.63 1016.72 1016.79 1016.85 1016.88 1016.87 1016.85 1016.82 1016.78 1016.76 1016.76
1011.80 1011.89 1012.05 1012.26 1012.48 1012.69 1012.87 1013.04 1013.21 1013.40 1013.64 1013.94 1014.29 1014.66 1015.03 1015.37 1015.66 1015.87 1016.01 1016.08 1016.12 1016.13 1016.13 1016.14 1016.15 1016.17 1016.20 1016.24 1016.28 1016.33 1016.39 1016.46 1016.54 1016.62 1016.70 1016.76 1016.81 1016.83 1016.84 1016.84 1016.84 1016.84 1016.85
1011.73 1011.78 1011.88 1012.01 1012.16 1012.32 1012.47 1012.63 1012.81 1013.03 1013.30 1013.62 1013.97 1014.34 1014.69 1015.01 1015.28 1015.49 1015.63 1015.73 1015.80 1015.85 1015.91 1015.96 1016.03 1016.09 1016.15 1016.21 1016.26 1016.32 1016.37 1016.42 1016.48 1016.54 1016.60 1016.66 1016.71 1016.76 1016.80 1016.83 1016.86 1016.90 1016.93
1011.80 1011.78 1011.79 1011.84 1011.90 1011.97 1012.08 1012.21 1012.39 1012.61 1012.89 1013.21 1013.55 1013.90 1014.22 1014.51 1014.75 1014.95 1015.10 1015.23 1015.35 1015.47 1015.60 1015.74 1015.88 1016.01 1016.13 1016.23 1016.31 1016.37 1016.41 1016.45 1016.47 1016.50 1016.53 1016.57 1016.61 1016.66 1016.72 1016.78 1016.84 1016.90 1016.96
1012.05 1011.94 1011.85 1011.77 1011.72 1011.70 1011.73 1011.81 1011.95 1012.16 1012.43 1012.73 1013.05 1013.36 1013.65 1013.90 1014.12 1014.31 1014.48 1014.65 1014.84 1015.04 1015.26 1015.50 1015.73 1015.95 1016.14 1016.30 1016.41 1016.48 1016.52 1016.53 1016.52 1016.50 1016.49 1016.50 1016.52 1016.55 1016.61 1016.68 1016.76 1016.85 1016.93
1012.49 1012.27 1012.05 1011.85 1011.66 1011.52 1011.45 1011.46 1011.55 1011.71 1011.94 1012.21 1012.49 1012.77 1013.02 1013.24 1013.45 1013.64 1013.84 1014.06 1014.32 1014.61 1014.93 1015.26 1015.59 1015.90 1016.17 1016.38 1016.53 1016.61 1016.65 1016.64 1016.60 1016.55 1016.50 1016.46 1016.44 1016.45 1016.49 1016.55 1016.64 1016.74 1016.84
1013.09 1012.76 1012.41 1012.06 1011.74 1011.47 1011.29 1011.20 1011.21 1011.31 1011.49 1011.71 1011.95 1012.18 1012.41 1012.61 1012.81 1013.02 1013.26 1013.54 1013.86 1014.23 1014.63 1015.05 1015.46 1015.85 1016.17 1016.43 1016.62 1016.73 1016.77 1016.76 1016.70 1016.62 1016.54 1016.46 1016.40 1016.37 1016.38 1016.42 1016.50 1016.60 1016.71
1013.80 1013.36 1012.89 1012.40 1011.95 1011.55 1011.25 1011.06 1010.98 1011.01 1011.12 1011.29 1011.48 1011.68 1011.88 1012.08 1012.29 1012.52 1012.80 1013.12 1013.51 1013.93 1014.40 1014.87 1015.34 1015.76 1016.13 1016.43 1016.65 1016.79 1016.85 1016.85 1016.80 1016.72 1016.61 1016.51 1016.41 1016.35 1016.31 1016.32 1016.37 1016.45 1016.56
1014.51 1013.99 1013.41 1012.82 1012.26 1011.76 1011.35 1011.06 1010.90 1010.85 1010.89 1011.00 1011.15 1011.32 1011.50 1011.70 1011.92 1012.18 1012.49 1012.85 1013.26 1013.73 1014.22 1014.72 1015.20 1015.64 1016.03 1016.35 1016.60 1016.77 1016.87 1016.90 1016.88 1016.82 1016.72 1016.60 1016.48 1016.38 1016.30 1016.26 1016.26 1016.31 1016.40
1015.15 1014.57 1013.93 1013.27 1012.63 1012.05 1011.57 1011.21 1010.97 1010.85 1010.83 1010.89 1010.99 1011.14 1011.30 1011.50 1011.73 1012.01 1012.33 1012.71 1013.14 1013.60 1014.09 1014.57 1015.04 1015.48 1015.86 1016.19 1016.46 1016.67 1016.82 1016.90 1016.93 1016.91 1016.84 1016.73 1016.60 1016.47 1016.34 1016.24 1016.18 1016.19 1016.25
1015.64 1015.03 1014.37 1013.68 1013.02 1012.40 1011.88 1011.47 1011.18 1011.00 1010.93 1010.95 1011.02 1011.14 1011.29 1011.48 1011.71 1011.99 1012.32 1012.69 1013.10 1013.54 1013.99 1014.44 1014.87 1015.27 1015.64 1015.97 1016.26 1016.51 1016.71 1016.86 1016.95 1016.99 1016.96 1016.88 1016.75 1016.58 1016.41 1016.26 1016.14 1016.08 1016.10
1015.94 1015.34 1014.70 1014.03 1013.38 1012.77 1012.24 1011.81 1011.49 1011.29 1011.19 1011.16 1011.21 1011.30 1011.44 1011.61 1011.83 1012.10 1012.40 1012.75 1013.12 1013.51 1013.91 1014.31 1014.69 1015.05 1015.40 1015.72 1016.03 1016.31 1016.57 1016.78 1016.94 1017.04 1017.06 1017.01 1016.88 1016.70 1016.49 1016.28 1016.10 1015.98 1015.94
1016.09 1015.53 1014.93 1014.30 1013.69 1013.12 1012.61 1012.20 1011.88 1011.67 1011.55 1011.50 1011.52 1011.59 1011.70 1011.85 1012.04 1012.27 1012.54 1012.84 1013.17 1013.51 1013.85 1014.19 1014.52 1014.84 1015.16 1015.48 1015.80 1016.11 1016.40 1016.67 1016.89 1017.04 1017.11 1017.09 1016.97 1016.78 1016.54 1016.28 1016.04 1015.86 1015.76
1016.15 1015.63 1015.08 1014.52 1013.96 1013.44 1012.98 1012.60 1012.31 1012.10 1011.97 1011.91 1011.91 1011.95 1012.03 1012.14 1012.30 1012.48 1012.70 1012.95 1013.22 1013.51 1013.80 1014.09 1014.38 1014.67 1014.96 1015.27 1015.58 1015.91 1016.23 1016.53 1016.79 1016.98 1017.08 1017.08 1016.98 1016.79 1016.53 1016.24 1015.95 1015.71 1015.57
Thickness
5798 5800 5798 5796 5795 5793 5791 5790 5788 5787 5785 5784 5782 5781 5780 5778 5777 5777 5776 5776 5775 5774 5773 5773 5772 5772 5772 5772 5772 5774 5775 5776 5777 5778 5778 5779 5780 5780 5781 5782 5782 5782 5782
5805 5802 5799 5797 5796 5795 5793 5791 5789 5788 5786 5784 5783 5781 5780 5779 5777 5776 5775 5775 5774 5773 5772 5771 5771 5770 5770 5770 5771 5772 5773 5774 5775 5775 5776 5777 5777 5778 5778 5779 5779 5779 5779
5806 5803 5800 5798 5797 5796 5794 5793 5791 5789 5787 5785 5783 5782 5781 5779 5778 5776 5775 5774 5773 5772 5771 5770 5769 5769 5768 5768 5769 5770 5770 5772 5772 5773 5774 5774 5774 5775 5775 5776 5776 5776 5776
5808 5805 5802 5800 5798 5797 5796 5794 5793 5791 5789 5787 5785 5783 5781 5779 5778 5776 5774 5773 5772 5771 5770 5769 5768 5767 5766 5766 5766 5768 5768 5769 5770 5771 5771 5771 5771 5771 5772 5772 5772 5773 5773
5809 5806 5803 5802 5800 5798 5797 5795 5794 5792 5790 5788 5786 5784 5782 5780 5778 5776 5775 5773 5772 5770 5769 5768 5767 5766 5765 5764 5765 5765 5766 5766 5767 5768 5768 5768 5768 5767 5768 5768 5768 5769 5770
5809 5807 5804 5802 5800 5799 5797 5796 5794 5793 5791 5789 5787 5785 5783 5781 5779 5776 5775 5773 5772 5770 5769 5767 5766 5765 5764 5764 5764 5764 5764 5764 5764 5765 5765 5765 5765 5765 5765 5765 5765 5766 5767
5809 5807 5805 5802 5800 5799 5797 5796 5794 5793 5791 5789 5788 5786 5784 5782 5780 5777 5775 5774 5772 5771 5770 5768 5767 5766 5765 5764 5764 5763 5763 5762 5762 5762 5762 5763 5763 5763 5763 5763 5763 5764 5764
5812 5808 5806 5803 5801 5799 5797 5796 5795 5793 5791 5790 5788 5786 5784 5782 5781 5779 5777 5775 5773 5772 5771 5770 5769 5768 5766 5766 5765 5764 5763 5762 5761 5762 5762 5762 5761 5761 5761 5762 5762 5762 5762
5812 5809 5807 5804 5802 5800 5798 5796 5795 5793 5791 5790 5788 5786 5784 5782 5781 5780 5778 5776 5774 5773 5772 5771 5770 5769 5768 5767 5766 5765 5763 5762 5761 5761 5761 5761 5760 5760 5760 5760 5760 5760 5760
5811 5809 5807 5805 5803 5801 5799 5797 5795 5793 5792 5790 5788 5787 5784 5782 5781 5780 5778 5776 5775 5774 5773 5772 5771 5770 5769 5768 5767 5765 5764 5762 5761 5760 5760 5760 5760 5759 5759 5759 5759 5759 5759
5808 5808 5808 5806 5804 5803 5800 5798 5796 5794 5792 5790 5789 5787 5785 5782 5781 5779 5778 5776 5775 5774 5773 5772 5771 5771 5770 5769 5767 5766 5763 5761 5760 5759 5758 5759 5759 5758 5758 5758 5758 5758 5758
5806 5808 5809 5807 5806 5803 5801 5800 5797 5795 5793 5791 5790 5788 5785 5782 5781 5779 5777 5776 5775 5774 5773 5772 5771 5770 5770 5769 5768 5766 5763 5761 5760 5758 5758 5758 5759 5758 5758 5757 5757 5757 5757
5812 5811 5810 5809 5807 5804 5803 5800 5797 5795 5793 5791 5790 5788 5785 5782 5780 5778 5777 5775 5774 5774 5772 5771 5771 5770 5769 5768 5767 5765 5763 5761 5760 5759 5758 5758 5758 5758 5757 5757 5756 5756 5756
5814 5814 5813 5811 5808 5806 5803 5801 5797 5795 5792 5790 5789 5787 5784 5781 5778 5777 5776 5774 5773 5773 5772 5771 5769 5769 5768 5767 5766 5764 5762 5761 5759 5758 5757 5757 5757 5757 5756 5756 5755 5755 5755
5814 5816 5816 5815 5811 5808 5804 5801 5798 5795 5793 5790 5788 5785 5783 5780 5777 5775 5774 5773 5772 5772 5771 5770 5768 5767 5767 5766 5765 5763 5761 5759 5758 5757 5756 5755 5755 5755 5755 5754 5754 5753 5753
5806 5811 5815 5814 5813 5809 5806 5802 5799 5796 5793 5790 5787 5785 5782 5779 5777 5774 5772 5771 5770 5770 5770 5768 5767 5766 5765 5765 5764 5763 5760 5757 5756 5755 5755 5754 5753 5752 5752 5751 5752 5751 5750
5795 5800 5804 5807 5808 5807 5805 5802 5800 5796 5792 5789 5787 5785 5782 5779 5776 5773 5771 5769 5769 5768 5767 5765 5764 5763 5762 5762 5761 5760 5758 5756 5754 5754 5753 5751 5750 5749 5749 5748 5748 5748 5748
5784 5789 5793 5797 5800 5801 5801 5800 5798 5795 5792 5789 5787 5784 5782 5779 5777 5774 5771 5769 5768 5766 5764 5761 5760 5758 5757 5756 5756 5756 5755 5753 5752 5751 5750 5748 5747 5746 5745 5745 5745 5744 5744
5772 5776 5781 5785 5789 5792 5794 5795 5794 5792 5790 5788 5785 5783 5782 5779 5777 5774 5772 5771 5768 5764 5761 5759 5757 5755 5751 5750 5751 5750 5750 5750 5750 5748 5746 5745 5744 5743 5742 5742 5741 5740 5739
5760 5763 5768 5773 5777 5782 5785 5786 5786 5785 5784 5784 5783 5782 5780 5778 5775 5772 5770 5769 5767 5762 5758 5756 5753 5751 5748 5746 5745 5743 5742 5744 5745 5745 5745 5743 5741 5740 5739 5738 5737 5736 5735
5746 5750 5753 5758 5763 5768 5771 5773 5774 5775 5777 5777 5779 5779 5776 5774 5771 5769 5766 5764 5762 5758 5755 5752 5748 5744 5741 5741 5736 5732 5733 5736 5738 5740 5741 5741 5738 5737 5735 5734 5733 5732 5731
5729 5734 5740 5744 5750 5755 5760 5765 5769 5771 5771 5772 5772 5772 5770 5767 5766 5763 5760 5758 5757 5753 5749 5746 5743 5737 5735 5734 5728 5721 5718 5721 5729 5734 5736 5737 5736 5734 5732 5730 5729 5727 5726
5715 5721 5726 5731 5737 5744 5750 5757 5761 5762 5762 5762 5761 5761 5761 5759 5758 5756 5753 5750 5749 5747 5742 5740 5739 5734 5727 5726 5726 5718 5710 5708 5715 5723 5727 5731 5732 5731 5729 5727 5725 5723 5722
5700 5708 5714 5719 5726 5733 5740 5746 5749 5751 5751 5754 5755 5753 5751 5749 5746 5746 5743 5741 5740 5738 5735 5734 5733 5730 5725 5718 5718 5718 5717 5715 5709 5709 5716 5721 5724 5725 5725 5725 5722 5719 5717
5687 5695 5702 5708 5715 5722 5730 5736 5741 5745 5748 5749 5749 5747 5744 5741 5738 5736 5733 5731 5730 5730 5729 5728 5726 5724 5721 5716 5712 5710 5710 5710 5710 5705 5704 5709 5714 5718 5720 5721 5720 5717 5714
5675 5683 5691 5697 5704 5712 5719 5726 5731 5735 5739 5740 5740 5738 5736 5734 5732 5729 5726 5724 5722 5721 5722 5721 5720 5718 5715 5712 5709 5707 5705 5703 5702 5702 5700 5701 5703 5708 5712 5714 5715 5714 5712